Location: Boneville
(33.4331°N, 82.4399°W)
Time: 11:59:02
(UTC+00:00)

Hubble Space Telescope - Visible Passes

Search period start: 05 December 2021 00:00
Search period end: 15 December 2021 00:00
Orbit: 534 x 538 km, 28.5° (Epoch: 04 December)

Date Brightness Start Highest point End Pass type
(mag) Time Alt. Az. Time Alt. Az. Time Alt. Az.
05 Dec 3.6 09:43:34 12° SSE 09:43:34 12° SSE 09:44:04 10° SE visible
13 Dec 3.2 23:34:40 10° S 23:36:01 11° SSE 23:37:21 10° SE visible
14 Dec 3.9 01:13:01 10° SW 01:13:07 10° SW 01:13:07 10° SW visible
14 Dec 3.1 23:22:30 10° S 23:24:44 14° SSE 23:26:57 10° SE visible
